This demonstration page uses our WeatherBlox Daily Observations layout. Learn more.

Left ArrowRight Arrow

Hourly Observations for November 25, 2020

Temp ( °F °C ) Dew Point ( °F °C ) Humidity (%) Winds ( mph kmh ) Pressure ( in mb ) Visibility ( mi km ) Precip ( " mm )
12:51 am 00:51 Clear 38 3.3 12 -11.1 34 34 ENE 5 7 30.05 1018 10 16 0.00 0.00
1:51 am 01:51 Clear 37 2.8 12 -11.1 36 36 SSE 5 7 30.05 1018 10 16 0.00 0.00
2:51 am 02:51 Clear 36 2.2 13 -10.6 39 39 Calm 30.07 1018 10 16 0.00 0.00
3:51 am 03:51 Clear 35 1.7 13 -10.6 40 40 Calm 30.07 1018 10 16 0.00 0.00
4:51 am 04:51 Clear 30 -1.1 10 -12.2 43 43 Calm 30.09 1019 10 16 0.00 0.00
5:51 am 05:51 Clear 30 -1.1 11 -11.7 45 45 NNE 5 7 30.11 1020 10 16 0.00 0.00
6:51 am 06:51 Clear 31 -0.6 12 -11.1 45 45 SE 5 7 30.13 1020 10 16 0.00 0.00
7:51 am 07:51 Sunny 37 2.8 13 -10.6 37 37 Calm 30.14 1021 10 16 0.00 0.00
8:51 am 08:51 Sunny 44 6.7 15 -9.4 31 31 Calm 30.14 1021 10 16 0.00 0.00
9:51 am 09:51 Sunny 53 11.7 18 -7.8 25 25 SE 7 11 30.13 1020 10 16 0.00 0.00
10:51 am 10:51 Sunny 57 13.9 19 -7.2 23 23 SE 9 15 30.13 1020 10 16 0.00 0.00
11:51 am 11:51 Sunny 59 15 18 -7.8 20 20 Calm 30.09 1019 10 16 0.00 0.00
12:51 pm 12:51 Sunny 62 16.7 16 -8.9 17 17 ESE 3 6 30.05 1018 10 16 0.00 0.00
1:51 pm 13:51 Sunny 64 17.8 17 -8.3 16 16 VRB 5 7 30.02 1017 10 16 0.00 0.00
3:51 pm 15:51 Sunny 66 18.9 17 -8.3 15 15 WNW 8 13 29.98 1015 10 16 0.00 0.00
4:51 pm 16:51 Sunny 63 17.2 17 -8.3 17 17 W 7 11 30.00 1016 10 16 0.00 0.00
5:51 pm 17:51 Clear 56 13.3 16 -8.9 21 21 NNW 5 7 30.01 1016 10 16 0.00 0.00
6:51 pm 18:51 Clear 52 11.1 15 -9.4 23 23 NNW 8 13 30.01 1016 10 16 0.00 0.00
7:51 pm 19:51 Clear 51 10.6 15 -9.4 24 24 NNE 5 7 30.01 1016 10 16 0.00 0.00
8:51 pm 20:51 Clear 47 8.3 15 -9.4 28 28 S 6 9 30.01 1016 10 16 0.00 0.00
9:51 pm 21:51 Clear 44 6.7 14 -10 30 30 E 3 6 30.00 1016 10 16 0.00 0.00
10:51 pm 22:51 Clear 42 5.6 14 -10 32 32 Calm 30.00 1016 10 16 0.00 0.00
11:51 pm 23:51 Clear 42 5.6 14 -10 32 32 VRB 3 6 29.99 1016 10 16 0.00 0.00

Powered by AerisWeather